Retour au catalogue

QIANFAN-183

ActifCommunicationsPO
NORAD 69401·PAYLOAD·🇨🇳 China

Lancé Jun 5, 2026 depuis Wenchang Space Launch Site

Loading…

Prochains Passages (prochaines 24 heures)

TLE

FraisSource: Space-Track

Époque: Sep 14, 2026, 23:22 UTC

1 69401U 26125A   26257.97428658  .00000009  00000-0 -54845-5 0  9998
2 69401  88.9832 270.8709 0001964 101.8203 258.3168 13.51027462 14063

Suivez QIANFAN-183 en temps réel avec AllMySat

Download on the App Store